{"data":{"norad_id":50001,"epoch":"2026-09-20T03:55:16.662720Z","epoch_age_seconds":50979,"freshness":"FRESH","line1":"1 50001U 21123A   26263.16338730 -.00000247  00000+0  00000+0 0  9997","line2":"2 50001   0.0264 251.5296 0000356 207.7687 103.6011  1.00271712 17495","mean_motion":1.00271712,"eccentricity":3.56e-5,"inclination_deg":0.0264,"raan_deg":251.5296,"arg_perigee_deg":207.7687,"mean_anomaly_deg":103.6011,"bstar":0,"rev_number":1749,"period_min":1436.0979495393,"perigee_km":35785.114360567,"apogee_km":35788.116490939,"semimajor_km":42164.752425753,"source":"CELESTRAK","updated_at":"2026-09-20T09:00:35.301448Z"}}